﻿_id,日時,平均風速(m/s),平均風向,最大瞬間風速(m/s),最大風速時風向,気温(℃),湿度(%),10分間移動積算雨量(mm),1時間移動積算雨量(mm),日雨量(mm),累計雨量(mm)
1,2020-06-29T00:00:00,1.1,西北西,1.9,西北西,18.5,95.4,0,0,8,8.5
2,2020-06-29T00:01:00,1.2,西北西,1.9,西北西,18.4,95.4,0,0,0,8.5
3,2020-06-29T00:02:00,1.1,西北西,1.9,西北西,18.4,95.3,0,0,0,8.5
4,2020-06-29T00:03:00,1.1,西北西,1.9,西北西,18.4,95.3,0,0,0,8.5
5,2020-06-29T00:04:00,1.1,西北西,1.9,西北西,18.4,95.3,0,0,0,8.5
6,2020-06-29T00:05:00,1.1,西北西,1.9,西北西,18.4,95.3,0,0,0,8.5
7,2020-06-29T00:06:00,1,西北西,1.9,西北西,18.4,95.4,0,0,0,8.5
8,2020-06-29T00:07:00,1,西北西,1.9,西北西,18.4,95.3,0,0,0,8.5
9,2020-06-29T00:08:00,1,西,1.8,西,18.4,95.4,0,0,0,8.5
10,2020-06-29T00:09:00,1,西,1.8,西,18.4,95.4,0,0,0,8.5
11,2020-06-29T00:10:00,1,西,1.8,西,18.3,95.4,0,0,0,8.5
12,2020-06-29T00:11:00,1,西,1.6,西北西,18.3,95.4,0,0,0,8.5
13,2020-06-29T00:12:00,1,西,1.6,西北西,18.3,95.4,0,0,0,8.5
14,2020-06-29T00:13:00,1,西,1.6,西北西,18.3,95.5,0,0,0,8.5
15,2020-06-29T00:14:00,1,西,1.8,西北西,18.3,95.5,0,0,0,8.5
16,2020-06-29T00:15:00,1.1,西,1.8,西北西,18.3,95.6,0,0,0,8.5
17,2020-06-29T00:16:00,1.2,西,1.8,西北西,18.3,95.5,0,0,0,8.5
18,2020-06-29T00:17:00,1.2,西,1.8,西北西,18.3,95.5,0,0,0,8.5
19,2020-06-29T00:18:00,1.2,西北西,1.8,西北西,18.4,95.5,0,0,0,8.5
20,2020-06-29T00:19:00,1.2,西北西,1.8,西北西,18.4,95.5,0,0,0,8.5
21,2020-06-29T00:20:00,1.2,西北西,1.8,西北西,18.5,95.5,0,0,0,8.5
22,2020-06-29T00:21:00,1.2,西北西,1.8,西北西,18.4,95.4,0,0,0,8.5
23,2020-06-29T00:22:00,1.2,西北西,1.8,西北西,18.4,95.3,0,0,0,8.5
24,2020-06-29T00:23:00,1.2,西北西,1.8,西北西,18.4,95.3,0,0,0,8.5
25,2020-06-29T00:24:00,1.1,西北西,1.7,西北西,18.4,95.3,0,0,0,8.5
26,2020-06-29T00:25:00,1,西北西,1.5,西,18.4,95.3,0,0,0,8.5
27,2020-06-29T00:26:00,1,西北西,1.5,西,18.3,95.3,0,0,0,8.5
28,2020-06-29T00:27:00,1,西北西,1.3,北西,18.3,95.3,0,0,0,8.5
29,2020-06-29T00:28:00,0.9,西北西,1.3,北西,18.3,95.3,0,0,0,8.5
30,2020-06-29T00:29:00,0.9,西北西,1.3,北西,18.3,95.3,0,0,0,8.5
31,2020-06-29T00:30:00,0.9,西北西,1.2,西北西,18.3,95.4,0,0,0,8.5
32,2020-06-29T00:31:00,0.8,西北西,1.2,西北西,18.2,95.5,0,0,0,8.5
33,2020-06-29T00:32:00,0.8,西北西,1.1,北西,18.2,95.5,0,0,0,8.5
34,2020-06-29T00:33:00,0.8,北西,1.3,北西,18.2,95.5,0,0,0,8.5
35,2020-06-29T00:34:00,0.9,北西,2.1,西北西,18.2,95.6,0,0,0,8.5
36,2020-06-29T00:35:00,0.9,北西,2.6,西北西,18.3,95.6,0,0,0,8.5
37,2020-06-29T00:36:00,1.1,北西,3.2,北西,18.3,95.5,0,0,0,8.5
38,2020-06-29T00:37:00,1.2,西北西,3.2,北西,18.3,95.5,0,0,0,8.5
39,2020-06-29T00:38:00,1.4,西北西,3.2,北西,18.3,95.4,0,0,0,8.5
40,2020-06-29T00:39:00,1.4,西北西,3.2,北西,18.3,95.3,0,0,0,8.5
41,2020-06-29T00:40:00,1.5,西北西,3.2,北西,18.2,95.2,0,0,0,8.5
42,2020-06-29T00:41:00,1.7,西北西,3.2,北西,18.2,95.1,0,0,0,8.5
43,2020-06-29T00:42:00,1.8,西北西,3.2,北西,18.1,95,0,0,0,8.5
44,2020-06-29T00:43:00,1.9,西北西,3.2,北西,18.1,95,0,0,0,8.5
45,2020-06-29T00:44:00,1.9,西北西,3.2,北西,18.1,95.1,0,0,0,8.5
46,2020-06-29T00:45:00,1.9,西北西,3.2,北西,18,95.1,0,0,0,8.5
47,2020-06-29T00:46:00,1.9,西北西,2.9,西北西,18,95.2,0,0,0,8.5
48,2020-06-29T00:47:00,1.9,西北西,2.9,西北西,18,95.3,0,0,0,8.5
49,2020-06-29T00:48:00,1.9,西北西,2.9,西北西,18,95.4,0,0,0,8.5
50,2020-06-29T00:49:00,1.9,西北西,2.9,西北西,18,95.4,0,0,0,8.5
51,2020-06-29T00:50:00,1.9,西北西,2.9,西北西,18,95.5,0,0,0,8.5
52,2020-06-29T00:51:00,1.9,西北西,2.8,西北西,18,95.5,0,0,0,8.5
53,2020-06-29T00:52:00,1.9,西北西,2.8,西北西,18.1,95.7,0,0,0,8.5
54,2020-06-29T00:53:00,1.8,西北西,2.8,西北西,18.1,95.6,0,0,0,8.5
55,2020-06-29T00:54:00,1.8,西北西,2.8,西北西,18,95.6,0,0,0,8.5
56,2020-06-29T00:55:00,1.8,西北西,2.8,西北西,18,95.5,0,0,0,8.5
57,2020-06-29T00:56:00,1.8,西北西,2.8,西北西,18,95.5,0,0,0,8.5
58,2020-06-29T00:57:00,1.7,西,2.5,西,18,95.6,0,0,0,8.5
59,2020-06-29T00:58:00,1.7,西,2.5,西,17.9,95.5,0,0,0,8.5
60,2020-06-29T00:59:00,1.6,西,2.4,西,17.9,95.6,0,0,0,8.5
61,2020-06-29T01:00:00,1.6,西,2.4,西,17.9,95.6,0,0,0,8.5
62,2020-06-29T01:01:00,1.6,西,2.4,西,17.9,95.6,0,0,0,8.5
63,2020-06-29T01:02:00,1.6,西,2.4,西,17.9,95.7,0,0,0,8.5
64,2020-06-29T01:03:00,1.6,西,2.4,西,17.9,95.8,0,0,0,8.5
65,2020-06-29T01:04:00,1.6,西,2.4,西,17.9,95.8,0,0,0,8.5
66,2020-06-29T01:05:00,1.6,西,2.4,西,17.9,95.8,0,0,0,8.5
67,2020-06-29T01:06:00,1.5,西,2.3,西,18,95.8,0,0,0,8.5
68,2020-06-29T01:07:00,1.5,西,2.3,西,17.9,95.8,0,0,0,8.5
69,2020-06-29T01:08:00,1.5,西,2.3,西,17.9,95.7,0,0,0,8.5
70,2020-06-29T01:09:00,1.4,西北西,2.2,西北西,17.9,95.7,0,0,0,8.5
71,2020-06-29T01:10:00,1.4,西北西,2.2,西北西,17.9,95.7,0,0,0,8.5
72,2020-06-29T01:11:00,1.4,西北西,2.2,西北西,17.9,95.8,0,0,0,8.5
73,2020-06-29T01:12:00,1.3,西北西,2.2,西北西,17.9,95.8,0,0,0,8.5
74,2020-06-29T01:13:00,1.2,西北西,2.2,西北西,17.9,95.8,0,0,0,8.5
75,2020-06-29T01:14:00,1.2,西北西,2.1,西北西,17.9,95.7,0,0,0,8.5
76,2020-06-29T01:15:00,1.1,西北西,1.9,西,17.8,95.8,0,0,0,8.5
77,2020-06-29T01:16:00,1.1,西北西,1.9,西,17.8,95.8,0,0,0,8.5
78,2020-06-29T01:17:00,1.1,西北西,1.8,西北西,17.8,95.8,0,0,0,8.5
79,2020-06-29T01:18:00,1.1,西北西,1.8,西北西,17.9,95.9,0,0,0,8.5
80,2020-06-29T01:19:00,1.1,西北西,1.8,西北西,17.9,95.9,0,0,0,8.5
81,2020-06-29T01:20:00,1.1,西北西,1.8,西北西,17.9,95.9,0,0,0,8.5
82,2020-06-29T01:21:00,1.1,西北西,1.8,北西,17.8,95.9,0,0,0,8.5
83,2020-06-29T01:22:00,1.1,西北西,1.8,北西,17.8,95.9,0,0,0,8.5
84,2020-06-29T01:23:00,1.1,西北西,1.8,北西,17.9,95.9,0,0,0,8.5
85,2020-06-29T01:24:00,1.1,西北西,1.8,北西,17.9,96,0,0,0,8.5
86,2020-06-29T01:25:00,1,北西,1.8,北西,17.9,96.1,0,0,0,8.5
87,2020-06-29T01:26:00,1,北西,1.8,北西,17.9,96.1,0,0,0,8.5
88,2020-06-29T01:27:00,0.9,北西,1.8,北西,17.9,96,0,0,0,8.5
89,2020-06-29T01:28:00,0.9,北西,2.3,北西,17.9,96,0,0,0,8.5
90,2020-06-29T01:29:00,0.9,北西,2.3,北西,17.9,95.9,0,0,0,8.5
91,2020-06-29T01:30:00,0.9,北西,2.3,北西,17.9,95.9,0,0,0,8.5
92,2020-06-29T01:31:00,0.9,西北西,2.3,北西,17.8,95.8,0,0,0,8.5
93,2020-06-29T01:32:00,0.9,西北西,2.3,北西,17.7,95.6,0,0,0,8.5
94,2020-06-29T01:33:00,0.9,西北西,2.3,北西,17.6,95.5,0,0,0,8.5
95,2020-06-29T01:34:00,1,西北西,2.3,北西,17.6,95.6,0,0,0,8.5
96,2020-06-29T01:35:00,1,西,2.3,北西,17.6,95.7,0,0,0,8.5
97,2020-06-29T01:36:00,1.1,西,2.3,北西,17.6,95.7,0,0,0,8.5
98,2020-06-29T01:37:00,1.1,西,2.3,北西,17.6,95.8,0,0,0,8.5
99,2020-06-29T01:38:00,1.1,西,1.7,西,17.6,95.9,0,0,0,8.5
100,2020-06-29T01:39:00,1.2,西,1.7,西,17.6,95.9,0,0,0,8.5
101,2020-06-29T01:40:00,1.2,西,1.7,西,17.6,95.9,0,0,0,8.5
102,2020-06-29T01:41:00,1.2,西,1.7,西,17.6,95.9,0,0,0,8.5
103,2020-06-29T01:42:00,1.3,西,2,西北西,17.6,95.9,0,0,0,8.5
104,2020-06-29T01:43:00,1.3,西,2,西北西,17.6,95.9,0,0,0,8.5
105,2020-06-29T01:44:00,1.4,西,2.3,西北西,17.6,96,0,0,0,8.5
106,2020-06-29T01:45:00,1.5,西北西,2.5,西北西,17.6,96,0,0,0,8.5
107,2020-06-29T01:46:00,1.5,西北西,2.5,西北西,17.7,96.1,0,0,0,8.5
108,2020-06-29T01:47:00,1.6,西北西,2.5,西北西,17.7,96.1,0,0,0,8.5
109,2020-06-29T01:48:00,1.6,西北西,2.5,西北西,17.7,96,0,0,0,8.5
110,2020-06-29T01:49:00,1.5,西北西,2.5,西北西,17.6,95.9,0,0,0,8.5
111,2020-06-29T01:50:00,1.5,西北西,2.5,西北西,17.5,95.7,0,0,0,8.5
112,2020-06-29T01:51:00,1.5,西北西,2.5,西北西,17.5,95.8,0,0,0,8.5
113,2020-06-29T01:52:00,1.5,西,2.5,西北西,17.4,95.8,0,0,0,8.5
114,2020-06-29T01:53:00,1.4,西,2.5,西北西,17.4,95.9,0,0,0,8.5
115,2020-06-29T01:54:00,1.3,西,2.5,西北西,17.5,95.9,0,0,0,8.5
116,2020-06-29T01:55:00,1.2,西,2.5,北西,17.5,96.1,0,0,0,8.5
117,2020-06-29T01:56:00,1.1,西,2,西北西,17.5,96.1,0,0,0,8.5
118,2020-06-29T01:57:00,1,西,1.5,西南西,17.5,96.2,0,0,0,8.5
119,2020-06-29T01:58:00,0.9,西,1.5,西南西,17.6,96.3,0,0,0,8.5
120,2020-06-29T01:59:00,0.9,西北西,1.5,西南西,17.6,96.3,0,0,0,8.5
121,2020-06-29T02:00:00,0.9,西北西,1.5,西南西,17.6,96.4,0,0,0,8.5
122,2020-06-29T02:01:00,0.9,西北西,1.5,西南西,17.6,96.3,0,0,0,8.5
123,2020-06-29T02:02:00,0.9,西北西,1.4,西,17.6,96.3,0,0,0,8.5
124,2020-06-29T02:03:00,0.9,西北西,2,西,17.5,96.3,0,0,0,8.5
125,2020-06-29T02:04:00,1,西北西,2,西,17.4,96.1,0,0,0,8.5
126,2020-06-29T02:05:00,1.1,西北西,2,西,17.4,96.2,0,0,0,8.5
127,2020-06-29T02:06:00,1.2,西北西,2.6,西北西,17.4,96.2,0,0,0,8.5
128,2020-06-29T02:07:00,1.3,西北西,2.6,西北西,17.5,96.3,0,0,0,8.5
129,2020-06-29T02:08:00,1.5,西,2.9,西,17.5,96.4,0,0,0,8.5
130,2020-06-29T02:09:00,1.5,西,2.9,西,17.5,96.3,0,0,0,8.5
131,2020-06-29T02:10:00,1.6,西,2.9,西,17.5,96.2,0,0,0,8.5
132,2020-06-29T02:11:00,1.6,西,2.9,西,17.5,96.2,0,0,0,8.5
133,2020-06-29T02:12:00,1.6,西,2.9,西,17.5,96.2,0,0,0,8.5
134,2020-06-29T02:13:00,1.6,西,2.9,西,17.4,96.1,0,0,0,8.5
135,2020-06-29T02:14:00,1.5,西,2.9,西,17.5,96.2,0,0,0,8.5
136,2020-06-29T02:15:00,1.4,西北西,2.9,西,17.5,96.2,0,0,0,8.5
137,2020-06-29T02:16:00,1.3,西北西,2.9,西,17.6,96.3,0,0,0,8.5
138,2020-06-29T02:17:00,1.2,西北西,2.9,西,17.6,96.4,0,0,0,8.5
139,2020-06-29T02:18:00,1.1,北西,2,西北西,17.6,96.3,0,0,0,8.5
140,2020-06-29T02:19:00,1,北西,1.9,西北西,17.5,96.2,0,0,0,8.5
141,2020-06-29T02:20:00,0.9,北西,1.9,西北西,17.5,96.2,0,0,0,8.5
142,2020-06-29T02:21:00,0.9,北西,1.9,西北西,17.5,96.2,0,0,0,8.5
143,2020-06-29T02:22:00,0.9,北西,1.9,西北西,17.5,96.3,0,0,0,8.5
144,2020-06-29T02:23:00,0.8,北西,1.4,北北西,17.5,96.3,0,0,0,8.5
145,2020-06-29T02:24:00,0.8,北西,1.4,北北西,17.4,96.3,0,0,0,8.5
146,2020-06-29T02:25:00,0.8,北西,1.4,北北西,17.4,96.3,0,0,0,8.5
147,2020-06-29T02:26:00,0.8,北西,1.4,北北西,17.4,96.3,0,0,0,8.5
148,2020-06-29T02:27:00,0.8,北西,1.4,北北西,17.3,96.2,0,0,0,8.5
149,2020-06-29T02:28:00,0.8,西北西,1.1,北西,17.3,96.3,0,0,0,8.5
150,2020-06-29T02:29:00,0.8,西北西,1.1,北西,17.3,96.3,0,0,0,8.5
151,2020-06-29T02:30:00,0.8,西北西,1.1,北西,17.3,96.3,0,0,0,8.5
152,2020-06-29T02:31:00,0.8,西北西,1.1,北西,17.3,96.4,0,0,0,8.5
153,2020-06-29T02:32:00,0.8,西,1.1,北西,17.3,96.4,0,0,0,8.5
154,2020-06-29T02:33:00,0.8,西,1,西,17.3,96.4,0,0,0,8.5
155,2020-06-29T02:34:00,0.8,西,1,西,17.3,96.3,0,0,0,8.5
156,2020-06-29T02:35:00,0.8,西,1,西,17.3,96.4,0,0,0,8.5
157,2020-06-29T02:36:00,0.8,西,1,西,17.3,96.4,0,0,0,8.5
158,2020-06-29T02:37:00,0.8,西,1,西,17.3,96.4,0,0,0,8.5
159,2020-06-29T02:38:00,0.8,西,1,西,17.3,96.4,0,0,0,8.5
160,2020-06-29T02:39:00,0.8,西,1.2,西,17.2,96.3,0,0,0,8.5
161,2020-06-29T02:40:00,0.8,西,1.3,西,17.2,96.3,0,0,0,8.5
162,2020-06-29T02:41:00,0.9,西,1.3,西,17.2,96.3,0,0,0,8.5
163,2020-06-29T02:42:00,0.9,西,1.5,西,17.2,96.3,0,0,0,8.5
164,2020-06-29T02:43:00,1,西,1.9,西,17.2,96.4,0,0,0,8.5
165,2020-06-29T02:44:00,1,西,1.9,西,17.2,96.4,0,0,0,8.5
166,2020-06-29T02:45:00,1,西,1.9,西,17.2,96.4,0,0,0,8.5
167,2020-06-29T02:46:00,1.1,西,1.9,西,17.2,96.4,0,0,0,8.5
168,2020-06-29T02:47:00,1.1,西,1.9,西,17.2,96.4,0,0,0,8.5
169,2020-06-29T02:48:00,1.1,西,1.9,西,17.2,96.5,0,0,0,8.5
170,2020-06-29T02:49:00,1.1,西,1.9,西,17.2,96.4,0,0,0,8.5
171,2020-06-29T02:50:00,1.1,西,1.9,西,17.2,96.4,0,0,0,8.5
172,2020-06-29T02:51:00,1.1,西,1.9,西,17.2,96.4,0,0,0,8.5
173,2020-06-29T02:52:00,1.1,西,1.9,西,17.2,96.5,0,0,0,8.5
174,2020-06-29T02:53:00,1,西,1.6,西,17.2,96.5,0,0,0,8.5
175,2020-06-29T02:54:00,1,西,1.6,西,17.2,96.4,0,0,0,8.5
176,2020-06-29T02:55:00,1,西,1.4,西,17.2,96.4,0,0,0,8.5
177,2020-06-29T02:56:00,0.9,西,1.4,西,17.1,96.4,0,0,0,8.5
178,2020-06-29T02:57:00,0.9,西,1.4,西,17.2,96.5,0,0,0,8.5
179,2020-06-29T02:58:00,0.9,西,1.4,西,17.2,96.5,0,0,0,8.5
180,2020-06-29T02:59:00,0.9,西,1.4,西,17.2,96.4,0,0,0,8.5
181,2020-06-29T03:00:00,0.9,西,1.4,西,17.1,96.4,0,0,0,8.5
182,2020-06-29T03:01:00,0.9,西北西,1.4,西,17.1,96.5,0,0,0,8.5
183,2020-06-29T03:02:00,0.9,西北西,1.4,西,17.1,96.5,0,0,0,8.5
184,2020-06-29T03:03:00,0.9,西北西,1.4,西,17.2,96.6,0,0,0,8.5
185,2020-06-29T03:04:00,0.9,西北西,1.4,西,17.2,96.7,0,0,0,8.5
186,2020-06-29T03:05:00,0.9,西北西,1.4,西,17.2,96.7,0,0,0,8.5
187,2020-06-29T03:06:00,0.9,西北西,1.5,西,17.2,96.7,0,0,0,8.5
188,2020-06-29T03:07:00,1,西北西,1.7,西北西,17.2,96.7,0,0,0,8.5
189,2020-06-29T03:08:00,1,西北西,1.7,西北西,17.2,96.7,0,0,0,8.5
190,2020-06-29T03:09:00,1.1,西北西,2.3,西,17.1,96.6,0,0,0,8.5
191,2020-06-29T03:10:00,1.1,西北西,2.3,西,17.1,96.5,0,0,0,8.5
192,2020-06-29T03:11:00,1.1,西北西,2.3,西,17.1,96.5,0,0,0,8.5
193,2020-06-29T03:12:00,1.2,西北西,2.3,西,17,96.5,0,0,0,8.5
194,2020-06-29T03:13:00,1.2,西北西,2.3,西,17,96.5,0,0,0,8.5
195,2020-06-29T03:14:00,1.2,西,2.3,西,17,96.5,0,0,0,8.5
196,2020-06-29T03:15:00,1.2,西,2.3,西,17.1,96.6,0,0,0,8.5
197,2020-06-29T03:16:00,1.2,西,2.3,西,17.1,96.7,0,0,0,8.5
198,2020-06-29T03:17:00,1.2,西,2.3,西,17,96.6,0,0,0,8.5
199,2020-06-29T03:18:00,1.3,西,2.3,西,17.1,96.6,0,0,0,8.5
200,2020-06-29T03:19:00,1.3,西,2.2,西,17,96.6,0,0,0,8.5
201,2020-06-29T03:20:00,1.3,西,2.2,西,17,96.6,0,0,0,8.5
202,2020-06-29T03:21:00,1.3,西,2.4,北西,17.1,96.6,0,0,0,8.5
203,2020-06-29T03:22:00,1.3,西,2.4,北西,17.2,96.8,0,0,0,8.5
204,2020-06-29T03:23:00,1.3,西,2.4,北西,17.1,96.7,0,0,0,8.5
205,2020-06-29T03:24:00,1.2,西,2.4,北西,17.1,96.6,0,0,0,8.5
206,2020-06-29T03:25:00,1.2,西,2.4,北西,17.1,96.6,0,0,0,8.5
207,2020-06-29T03:26:00,1.2,西,2.4,北西,17.1,96.6,0,0,0,8.5
208,2020-06-29T03:27:00,1.1,西,2.4,北西,17.1,96.6,0,0,0,8.5
209,2020-06-29T03:28:00,1.1,西,2.4,北西,17.1,96.5,0,0,0,8.5
210,2020-06-29T03:29:00,1,西,2.4,北西,17.2,96.6,0,0,0,8.5
211,2020-06-29T03:30:00,0.9,西,2.4,北西,17.1,96.5,0,0,0,8.5
212,2020-06-29T03:31:00,0.8,西,2.3,西北西,17.1,96.5,0,0,0,8.5
213,2020-06-29T03:32:00,0.7,西北西,2.3,西北西,17.1,96.5,0,0,0,8.5
214,2020-06-29T03:33:00,0.7,西北西,2.3,西北西,17.1,96.5,0,0,0,8.5
215,2020-06-29T03:34:00,0.8,西北西,2.3,西北西,17.1,96.5,0,0,0,8.5
216,2020-06-29T03:35:00,0.7,西北西,2.3,西北西,17.1,96.5,0,0,0,8.5
217,2020-06-29T03:36:00,0.6,西北西,1.7,西,17.1,96.6,0,0,0,8.5
218,2020-06-29T03:37:00,0.6,西北西,1.7,西,17.1,96.6,0,0,0,8.5
219,2020-06-29T03:38:00,0.6,西北西,1.3,北西,17,96.6,0,0,0,8.5
220,2020-06-29T03:39:00,0.6,西北西,1.1,西,17,96.5,0,0,0,8.5
221,2020-06-29T03:40:00,0.6,西,1.1,西,17,96.6,0,0,0,8.5
222,2020-06-29T03:41:00,0.7,西,1.2,西,16.9,96.5,0,0,0,8.5
223,2020-06-29T03:42:00,0.8,西,1.6,西北西,16.9,96.5,0,0,0,8.5
224,2020-06-29T03:43:00,0.8,西,1.6,西北西,16.9,96.5,0,0,0,8.5
225,2020-06-29T03:44:00,0.9,西,1.6,西北西,16.9,96.6,0,0,0,8.5
226,2020-06-29T03:45:00,0.9,西,1.6,西北西,16.9,96.6,0,0,0,8.5
227,2020-06-29T03:46:00,1,西北西,1.6,西北西,17,96.8,0,0,0,8.5
228,2020-06-29T03:47:00,1,西北西,1.6,西北西,17,96.8,0,0,0,8.5
229,2020-06-29T03:48:00,1,西北西,1.6,西北西,17,96.8,0,0,0,8.5
230,2020-06-29T03:49:00,1,西北西,1.6,西北西,17,96.9,0,0,0,8.5
231,2020-06-29T03:50:00,1,西北西,1.6,西北西,17,96.8,0,0,0,8.5
232,2020-06-29T03:51:00,1,西北西,1.6,西北西,17,96.9,0,0,0,8.5
233,2020-06-29T03:52:00,0.9,西北西,1.6,西北西,17,96.8,0,0,0,8.5
234,2020-06-29T03:53:00,0.9,西北西,1.4,西北西,16.9,96.7,0,0,0,8.5
235,2020-06-29T03:54:00,0.8,西北西,1.3,西北西,16.9,96.6,0,0,0,8.5
236,2020-06-29T03:55:00,0.8,西北西,1.2,北西,16.9,96.6,0,0,0,8.5
237,2020-06-29T03:56:00,0.8,西北西,1.2,北西,16.9,96.7,0,0,0,8.5
238,2020-06-29T03:57:00,0.8,西,1.1,西,16.9,96.7,0,0,0,8.5
239,2020-06-29T03:58:00,0.8,西,1.1,西,16.8,96.6,0,0,0,8.5
240,2020-06-29T03:59:00,0.8,西,1.2,西,16.8,96.6,0,0,0,8.5
241,2020-06-29T04:00:00,0.8,西,1.2,西,16.8,96.6,0,0,0,8.5
242,2020-06-29T04:01:00,0.8,西,1.2,西,16.8,96.6,0,0,0,8.5
243,2020-06-29T04:02:00,0.8,西,1.2,西,16.8,96.6,0,0,0,8.5
244,2020-06-29T04:03:00,0.8,西,1.2,西,16.8,96.6,0,0,0,8.5
245,2020-06-29T04:04:00,0.8,西,1.2,西,16.8,96.6,0,0,0,8.5
246,2020-06-29T04:05:00,0.8,西,1.2,西,16.7,96.6,0,0,0,8.5
247,2020-06-29T04:06:00,0.8,西,1.2,西,16.8,96.6,0,0,0,8.5
248,2020-06-29T04:07:00,0.8,西,1.2,西,16.8,96.7,0,0,0,8.5
249,2020-06-29T04:08:00,0.7,西,1.2,西,16.8,96.7,0,0,0,8.5
250,2020-06-29T04:09:00,0.6,西,1.2,西,16.7,96.6,0,0,0,8.5
251,2020-06-29T04:10:00,0.6,西,1.2,西,16.7,96.6,0,0,0,8.5
252,2020-06-29T04:11:00,0.6,西,1.2,西,16.7,96.6,0,0,0,8.5
253,2020-06-29T04:12:00,0.6,西,1.4,西北西,16.7,96.6,0,0,0,8.5
254,2020-06-29T04:13:00,0.7,西,1.4,西北西,16.8,96.7,0,0,0,8.5
255,2020-06-29T04:14:00,0.6,西,1.4,西北西,16.8,96.7,0,0,0,8.5
256,2020-06-29T04:15:00,0.7,西,1.4,西北西,16.7,96.7,0,0,0,8.5
257,2020-06-29T04:16:00,0.7,西,1.4,西北西,16.7,96.6,0,0,0,8.5
258,2020-06-29T04:17:00,0.7,西,1.4,西北西,16.7,96.7,0,0,0,8.5
259,2020-06-29T04:18:00,0.7,西,1.4,西北西,16.7,96.7,0,0,0,8.5
260,2020-06-29T04:19:00,0.8,西,1.4,西北西,16.7,96.7,0,0,0,8.5
261,2020-06-29T04:20:00,0.7,西,1.4,西北西,16.7,96.7,0,0,0,8.5
262,2020-06-29T04:21:00,0.7,西,1.4,西北西,16.7,96.8,0,0,0,8.5
263,2020-06-29T04:22:00,0.6,西,1.4,西,16.7,96.8,0,0,0,8.5
264,2020-06-29T04:23:00,0.6,西,1.2,西,16.7,96.8,0,0,0,8.5
265,2020-06-29T04:24:00,0.6,西,1.2,西,16.7,96.8,0,0,0,8.5
266,2020-06-29T04:25:00,0.5,西,1.2,西,16.7,96.7,0,0,0,8.5
267,2020-06-29T04:26:00,0.5,西,1.2,西,16.6,96.6,0,0,0,8.5
268,2020-06-29T04:27:00,0.5,西,1.2,西,16.6,96.7,0,0,0,8.5
269,2020-06-29T04:28:00,0.5,西,1.2,西,16.7,96.8,0,0,0,8.5
270,2020-06-29T04:29:00,0.5,西,1,西,16.7,96.8,0,0,0,8.5
271,2020-06-29T04:30:00,0.5,西南西,1.1,西南西,16.7,96.8,0,0,0,8.5
272,2020-06-29T04:31:00,0.6,西南西,1.2,西,16.7,96.9,0,0,0,8.5
273,2020-06-29T04:32:00,0.6,西南西,1.2,西,16.7,96.9,0,0,0,8.5
274,2020-06-29T04:33:00,0.7,西南西,1.2,西,16.7,96.9,0,0,0,8.5
275,2020-06-29T04:34:00,0.7,西南西,1.2,西,16.7,96.8,0,0,0,8.5
276,2020-06-29T04:35:00,0.8,西南西,1.2,西,16.7,96.9,0,0,0,8.5
277,2020-06-29T04:36:00,0.8,西,1.2,西,16.7,96.8,0,0,0,8.5
278,2020-06-29T04:37:00,0.9,西,1.2,西,16.7,96.8,0,0,0,8.5
279,2020-06-29T04:38:00,0.9,西,1.2,西,16.7,96.8,0,0,0,8.5
280,2020-06-29T04:39:00,0.9,西,1.5,西,16.7,96.8,0,0,0,8.5
281,2020-06-29T04:40:00,0.9,西,1.5,西,16.7,96.7,0,0,0,8.5
282,2020-06-29T04:41:00,0.9,西,1.5,西,16.6,96.7,0,0,0,8.5
283,2020-06-29T04:42:00,0.9,西,1.5,西,16.6,96.7,0,0,0,8.5
284,2020-06-29T04:43:00,0.9,西,1.5,西,16.6,96.7,0,0,0,8.5
285,2020-06-29T04:44:00,0.9,西,1.5,西,16.6,96.7,0,0,0,8.5
286,2020-06-29T04:45:00,0.9,西,1.7,西,16.6,96.7,0,0,0,8.5
287,2020-06-29T04:46:00,1,西,1.9,西,16.6,96.7,0,0,0,8.5
288,2020-06-29T04:47:00,1,西,1.9,西,16.6,96.7,0,0,0,8.5
289,2020-06-29T04:48:00,1,西,1.9,西,16.5,96.7,0,0,0,8.5
290,2020-06-29T04:49:00,1,西南西,1.9,西,16.5,96.7,0,0,0,8.5
291,2020-06-29T04:50:00,1,西南西,1.9,西,16.5,96.7,0,0,0,8.5
292,2020-06-29T04:51:00,1,西南西,1.9,西,16.5,96.7,0,0,0,8.5
293,2020-06-29T04:52:00,1,西南西,1.9,西,16.5,96.7,0,0,0,8.5
294,2020-06-29T04:53:00,1.1,西南西,1.9,西,16.5,96.8,0,0,0,8.5
295,2020-06-29T04:54:00,1,西南西,1.9,西,16.5,96.7,0,0,0,8.5
296,2020-06-29T04:55:00,1,西南西,1.9,西,16.5,96.8,0,0,0,8.5
297,2020-06-29T04:56:00,1,西南西,1.8,西,16.5,96.8,0,0,0,8.5
298,2020-06-29T04:57:00,0.9,西南西,1.8,西,16.5,96.8,0,0,0,8.5
299,2020-06-29T04:58:00,0.9,西南西,1.8,西,16.5,96.9,0,0,0,8.5
300,2020-06-29T04:59:00,0.9,西南西,1.8,西,16.5,96.8,0,0,0,8.5
301,2020-06-29T05:00:00,0.9,西,1.8,西,16.5,96.8,0,0,0,0
302,2020-06-29T05:01:00,0.9,西,1.8,西,16.5,96.8,0,0,0,0
303,2020-06-29T05:02:00,0.9,西,1.7,西,16.5,96.8,0,0,0,0
304,2020-06-29T05:03:00,0.9,西,1.7,西,16.5,96.8,0,0,0,0
305,2020-06-29T05:04:00,1,西,1.7,西,16.5,96.8,0,0,0,0
306,2020-06-29T05:05:00,1,西,1.7,西,16.5,96.8,0,0,0,0
307,2020-06-29T05:06:00,1,西,1.7,西,16.5,96.8,0,0,0,0
308,2020-06-29T05:07:00,1,西,1.7,西,16.4,96.8,0,0,0,0
309,2020-06-29T05:08:00,1,西,1.7,西,16.5,96.8,0,0,0,0
310,2020-06-29T05:09:00,0.9,西,1.7,西,16.5,96.8,0,0,0,0
311,2020-06-29T05:10:00,0.9,西,1.6,西北西,16.5,96.9,0,0,0,0
312,2020-06-29T05:11:00,0.9,西,1.6,西北西,16.5,96.9,0,0,0,0
313,2020-06-29T05:12:00,1,西,1.8,西北西,16.5,96.9,0,0,0,0
314,2020-06-29T05:13:00,0.9,西,1.8,西北西,16.5,96.8,0,0,0,0
315,2020-06-29T05:14:00,0.9,西,1.8,西北西,16.5,96.8,0,0,0,0
316,2020-06-29T05:15:00,0.9,西,1.8,西北西,16.5,96.9,0,0,0,0
317,2020-06-29T05:16:00,0.9,西,1.8,西北西,16.5,96.9,0,0,0,0
318,2020-06-29T05:17:00,1,西,1.8,西北西,16.5,96.8,0,0,0,0
319,2020-06-29T05:18:00,1,西,1.8,西北西,16.5,96.9,0,0,0,0
320,2020-06-29T05:19:00,1.1,西,1.8,西北西,16.6,96.9,0,0,0,0
321,2020-06-29T05:20:00,1.1,西,1.8,西北西,16.6,96.9,0,0,0,0
322,2020-06-29T05:21:00,1.1,西,1.8,西北西,16.6,96.9,0,0,0,0
323,2020-06-29T05:22:00,1.1,西,1.8,西,16.6,96.9,0,0,0,0
324,2020-06-29T05:23:00,1.1,西,1.8,西,16.6,96.9,0,0,0,0
325,2020-06-29T05:24:00,1.1,西,1.8,西,16.6,96.9,0,0,0,0
326,2020-06-29T05:25:00,1.1,西,1.6,西,16.7,96.9,0,0,0,0
327,2020-06-29T05:26:00,1.1,西,1.6,西,16.6,96.8,0,0,0,0
328,2020-06-29T05:27:00,1,西,1.6,西,16.6,96.8,0,0,0,0
329,2020-06-29T05:28:00,1.1,西,1.6,西,16.6,96.8,0,0,0,0
330,2020-06-29T05:29:00,1.1,西,1.6,西,16.6,96.8,0,0,0,0
331,2020-06-29T05:30:00,1.1,西,1.6,西南西,16.6,96.8,0,0,0,0
332,2020-06-29T05:31:00,1.1,西,1.6,西南西,16.6,96.8,0,0,0,0
333,2020-06-29T05:32:00,1.1,西,1.6,西南西,16.6,96.8,0,0,0,0
334,2020-06-29T05:33:00,1.1,西,1.6,西南西,16.6,96.8,0,0,0,0
335,2020-06-29T05:34:00,1.1,西,1.6,西南西,16.6,96.8,0,0,0,0
336,2020-06-29T05:35:00,1.1,西,1.6,西南西,16.6,96.8,0,0,0,0
337,2020-06-29T05:36:00,1.1,西,1.6,西南西,16.6,96.8,0,0,0,0
338,2020-06-29T05:37:00,1.2,西,1.6,西南西,16.6,96.8,0,0,0,0
339,2020-06-29T05:38:00,1.1,西,1.6,西南西,16.7,96.8,0,0,0,0
340,2020-06-29T05:39:00,1.1,西,1.6,西北西,16.7,96.9,0,0,0,0
341,2020-06-29T05:40:00,1.1,西,1.7,西,16.7,96.9,0,0,0,0
342,2020-06-29T05:41:00,1.1,西,2.1,西,16.7,96.9,0,0,0,0
343,2020-06-29T05:42:00,1.1,西,2.1,西,16.8,96.9,0,0,0,0
344,2020-06-29T05:43:00,1.1,西,2.1,西,16.8,96.9,0,0,0,0
345,2020-06-29T05:44:00,1.1,西,2.1,西,16.8,96.9,0,0,0,0
346,2020-06-29T05:45:00,1.1,西,2.1,西,16.8,96.8,0,0,0,0
347,2020-06-29T05:46:00,1,西,2.1,西,16.8,96.8,0,0,0,0
348,2020-06-29T05:47:00,1,西,2.1,西,16.8,96.8,0,0,0,0
349,2020-06-29T05:48:00,1,西,2.1,西,16.8,96.8,0,0,0,0
350,2020-06-29T05:49:00,1,西,2.1,西,16.8,96.7,0,0,0,0
351,2020-06-29T05:50:00,0.9,西,2.1,西,16.8,96.7,0,0,0,0
352,2020-06-29T05:51:00,0.9,西,1.6,西,16.8,96.6,0,0,0,0
353,2020-06-29T05:52:00,0.9,西,1.4,西,16.8,96.6,0,0,0,0
354,2020-06-29T05:53:00,0.9,西,1.4,西,16.8,96.6,0,0,0,0
355,2020-06-29T05:54:00,0.9,西,1.4,西,16.8,96.6,0,0,0,0
356,2020-06-29T05:55:00,1,西,1.4,西,16.8,96.5,0,0,0,0
357,2020-06-29T05:56:00,1,西,1.4,西,16.8,96.5,0,0,0,0
358,2020-06-29T05:57:00,1,西,1.4,西,16.8,96.5,0,0,0,0
359,2020-06-29T05:58:00,1,西,1.5,西,16.8,96.4,0,0,0,0
360,2020-06-29T05:59:00,1,西,1.5,西,16.8,96.3,0,0,0,0
361,2020-06-29T06:00:00,1,西,1.6,西,16.8,96.3,0,0,0,0
362,2020-06-29T06:01:00,1.1,西,1.6,西,16.8,96.4,0,0,0,0
363,2020-06-29T06:02:00,1.1,西,1.6,西,16.8,96.4,0,0,0,0
364,2020-06-29T06:03:00,1,西,1.6,西,16.8,96.5,0,0,0,0
365,2020-06-29T06:04:00,1.1,西,1.6,西,16.8,96.4,0,0,0,0
366,2020-06-29T06:05:00,1.1,西,1.6,西,16.8,96.4,0,0,0,0
367,2020-06-29T06:06:00,1,西,1.6,西,16.9,96.4,0,0,0,0
368,2020-06-29T06:07:00,1,西,1.6,西,16.9,96.5,0,0,0,0
369,2020-06-29T06:08:00,1,西,1.6,西,16.9,96.5,0,0,0,0
370,2020-06-29T06:09:00,0.9,西,1.6,西,17,96.5,0,0,0,0
371,2020-06-29T06:10:00,0.9,西,1.4,西,17,96.5,0,0,0,0
372,2020-06-29T06:11:00,0.8,西,1.4,西,17,96.5,0,0,0,0
373,2020-06-29T06:12:00,0.7,西,1.3,西,17.1,96.5,0,0,0,0
374,2020-06-29T06:13:00,0.6,西,1.3,西,17.1,96.5,0,0,0,0
375,2020-06-29T06:14:00,0.6,西,1.1,西南西,17.1,96.5,0,0,0,0
376,2020-06-29T06:15:00,0.5,西,1.1,西南西,17.1,96.5,0,0,0,0
377,2020-06-29T06:16:00,0.5,西,0.9,西,17.2,96.5,0,0,0,0
378,2020-06-29T06:17:00,0.5,西,0.8,西,17.2,96.4,0,0,0,0
379,2020-06-29T06:18:00,0.5,西,0.8,西,17.2,96.4,0,0,0,0
380,2020-06-29T06:19:00,0.5,西,0.9,西,17.3,96.4,0,0,0,0
381,2020-06-29T06:20:00,0.5,西,0.9,西,17.3,96.3,0,0,0,0
382,2020-06-29T06:21:00,0.5,西,0.9,西,17.3,96.1,0,0,0,0
383,2020-06-29T06:22:00,0.5,西,0.9,西,17.3,96,0,0,0,0
384,2020-06-29T06:23:00,0.5,西南西,0.9,西,17.3,95.9,0,0,0,0
385,2020-06-29T06:24:00,0.5,西,0.9,西,17.3,95.8,0,0,0,0
386,2020-06-29T06:25:00,0.6,西,0.9,西,17.3,95.8,0,0,0,0
387,2020-06-29T06:26:00,0.6,西,1.1,西,17.3,95.7,0,0,0,0
388,2020-06-29T06:27:00,0.6,西南西,1.1,西,17.4,95.8,0,0,0,0
389,2020-06-29T06:28:00,0.6,西南西,1.1,西,17.4,95.8,0,0,0,0
390,2020-06-29T06:29:00,0.6,西南西,1.1,西,17.4,95.7,0,0,0,0
391,2020-06-29T06:30:00,0.6,西南西,1.1,西,17.4,95.8,0,0,0,0
392,2020-06-29T06:31:00,0.6,西南西,1.1,西,17.4,95.7,0,0,0,0
393,2020-06-29T06:32:00,0.6,西南西,1.1,西,17.5,95.6,0,0,0,0
394,2020-06-29T06:33:00,0.6,西南西,1.1,西,17.5,95.5,0,0,0,0
395,2020-06-29T06:34:00,0.5,西南西,1.1,西,17.5,95.6,0,0,0,0
396,2020-06-29T06:35:00,0.5,西南西,1.1,西,17.6,95.5,0,0,0,0
397,2020-06-29T06:36:00,0.4,南西,1,南西,17.6,95.4,0,0,0,0
398,2020-06-29T06:37:00,0.4,南西,1,南西,17.7,95.3,0,0,0,0
399,2020-06-29T06:38:00,0.3,西南西,1,南西,17.6,95.2,0,0,0,0
400,2020-06-29T06:39:00,0.3,西南西,1,南西,17.6,95.1,0,0,0,0
401,2020-06-29T06:40:00,0.3,西南西,0.8,南西,17.7,95.2,0,0,0,0
402,2020-06-29T06:41:00,0.2,静穏,0.8,南西,17.8,95.4,0,0,0,0
403,2020-06-29T06:42:00,0.2,静穏,0.9,南南東,18,95.5,0,0,0,0
404,2020-06-29T06:43:00,0.3,南西,1.3,南南東,18,95.3,0,0,0,0
405,2020-06-29T06:44:00,0.3,南西,1.3,南南東,18,95.2,0,0,0,0
406,2020-06-29T06:45:00,0.3,南南西,1.3,南南東,18.1,94.5,0,0,0,0
407,2020-06-29T06:46:00,0.4,南,1.3,南南東,18.2,94.5,0,0,0,0
408,2020-06-29T06:47:00,0.5,南南東,1.3,南南東,18.3,94.2,0,0,0,0
409,2020-06-29T06:48:00,0.6,南南東,1.5,東南東,18.3,93.6,0,0,0,0
410,2020-06-29T06:49:00,0.7,南東,2,東,18.3,93.8,0,0,0,0
411,2020-06-29T06:50:00,0.7,南東,2,東,18.5,93.9,0,0,0,0
412,2020-06-29T06:51:00,0.9,東南東,2,東,18.6,94.1,0,0,0,0
413,2020-06-29T06:52:00,1,東南東,2,東,18.4,92.6,0,0,0,0
414,2020-06-29T06:53:00,1,東南東,2,東,18.4,92.7,0,0,0,0
415,2020-06-29T06:54:00,1,東,2,東,18.3,92.8,0,0,0,0
416,2020-06-29T06:55:00,1,東,2,東,18.5,93.3,0,0,0,0
417,2020-06-29T06:56:00,1,東,2,東,18.5,93.4,0,0,0,0
418,2020-06-29T06:57:00,1,東,2,東,18.5,92.3,0,0,0,0
419,2020-06-29T06:58:00,1,東,2,東,18.5,92.2,0,0,0,0
420,2020-06-29T06:59:00,0.8,東,2,東北東,18.5,92,0,0,0,0
421,2020-06-29T07:00:00,0.8,東北東,2,東北東,18.5,91.5,0,0,0,0
422,2020-06-29T07:01:00,0.7,東北東,2,東北東,18.5,91.4,0,0,0,0
423,2020-06-29T07:02:00,0.5,東北東,2,東北東,18.5,91.3,0,0,0,0
424,2020-06-29T07:03:00,0.4,東北東,1.4,東,18.6,91.4,0,0,0,0
425,2020-06-29T07:04:00,0.4,東北東,1.3,東,18.7,91,0,0,0,0
426,2020-06-29T07:05:00,0.4,東北東,1.1,北東,18.7,90.6,0,0,0,0